Home > Weather > Monaco > Past weeks

Flag for Monaco Weather for the Past 2 Weeks in Monaco, Monaco

Now
48 °F

Partly sunny.


Feels Like: 47 °F
Forecast: 38 / 51 °F
Wind: 3 mph from North

Location: Nice Airport

Current Time: Feb 9, 2016 at 9:15:48 AM

Latest Report: Feb 9, 2016 at 8:30 AM


Visibility: N/A

Pressure: 29.95 "Hg

Humidity: 66%

Dew point: 37 °F

Location of MonacoLocation

Historic Weather in Monaco — Graph

°F

Monaco Temperature Yesterday

Maximum temperature yesterday: 59 °F (at 7:00 PM)
Minimum temperature yesterday: 46 °F (at 8:30 AM)
Average temperature yesterday: 54 °F

High & Low Weather Summary for the Past Weeks

 TemperatureHumidityPressure
High68 °F (Feb 3, 2:00 PM)88% (Jan 27, 10:30 PM)30.54 "Hg (Jan 27, 10:30 PM)
Low41 °F (Feb 4, 6:00 AM)12% (Feb 4, 12:00 AM)29.71 "Hg (Feb 7, 2:00 PM)
Average53 °F68%30.22 "Hg
* Reported Jan 25 8:00 AM — Feb 9 8:00 AM, Monaco, Weather by CustomWeather, © 2016

Note: Actual official high and low records may vary slightly from our data, if they occured in-between our weather recording intervals... More about our weather records

Advertising

Monaco Weather History for the Previous 24 Hours

 ConditionsComfort  
Time TempWeatherWind HumidityBarometerVisibility
8:00 AM
Tue, Feb 9
48 °FPartly sunny.10 mph66%29.95 "HgN/A
7:30 AM46 °FPassing clouds.7 mph71%29.95 "HgN/A
7:00 AM46 °FClear.5 mph71%29.95 "Hg10 mi
6:30 AM52 °FPassing clouds.7 mph67%29.95 "HgN/A
6:00 AM48 °FClear.3 mph71%29.98 "Hg10 mi
5:30 AM54 °FPassing clouds.5 mph63%29.95 "HgN/A
4:30 AM52 °FClear.10 mph62%29.95 "Hg10 mi
4:00 AM57 °FPassing clouds.8 mph59%29.95 "HgN/A
3:30 AM57 °FClear.18 mph59%29.95 "Hg10 mi
3:00 AM57 °FPassing clouds.12 mph59%29.95 "HgN/A
2:30 AM57 °FClear.18 mph59%29.98 "Hg10 mi
2:00 AM57 °FClear.20 mph63%29.98 "Hg10 mi
1:30 AM57 °FClear.20 mph59%29.98 "Hg10 mi
1:00 AM57 °FClear.20 mph59%29.98 "Hg10 mi
12:30 AM59 °FClear.22 mph55%29.98 "Hg10 mi
12:00 AM57 °FClear.23 mph59%29.98 "Hg10 mi
11:00 PM
Mon, Feb 8
57 °FClear.26 mph63%30.01 "Hg10 mi
10:30 PM59 °FClear.28 mph55%29.98 "Hg10 mi
10:00 PM59 °FClear.25 mph59%30.01 "Hg10 mi
9:30 PM59 °FClear.26 mph55%30.01 "Hg10 mi
9:00 PM59 °FClear.26 mph59%30.01 "Hg10 mi
8:30 PM59 °FClear.26 mph59%30.01 "Hg10 mi
8:00 PM59 °FClear.28 mph55%29.98 "Hg10 mi
7:30 PM59 °FClear.25 mph55%29.98 "Hg10 mi
7:00 PM59 °FClear.24 mph59%29.98 "Hg10 mi
6:30 PM57 °FClear.16 mph63%29.98 "Hg10 mi
6:00 PM55 °FPassing clouds.3 mph63%29.98 "HgN/A
5:30 PM55 °FSunny.2 mph63%29.98 "Hg10 mi
5:00 PM55 °FSunny.2 mph67%29.98 "Hg10 mi
4:30 PM55 °FSunny.6 mph67%29.98 "Hg10 mi
4:00 PM55 °FSunny.2 mph67%29.98 "Hg10 mi
3:30 PM57 °FSunny.2 mph63%29.98 "Hg10 mi
3:00 PM57 °FPartly sunny.3 mph63%29.98 "HgN/A
2:30 PM57 °FPartly sunny.7 mph63%29.98 "HgN/A
2:00 PM57 °FPartly sunny.8 mph63%30.01 "HgN/A
1:30 PM57 °FPartly sunny.7 mph63%30.01 "HgN/A
1:00 PM57 °FPartly sunny.7 mph63%30.01 "HgN/A
12:30 PM57 °FScattered clouds.3 mph63%30.01 "HgN/A
12:00 PM57 °FScattered clouds.3 mph63%30.01 "HgN/A
11:30 AM57 °FScattered clouds.5 mph55%30.01 "HgN/A
11:00 AM55 °FScattered clouds.10 mph59%30.04 "HgN/A
10:30 AM54 °FScattered clouds.9 mph58%30.01 "HgN/A
10:00 AM52 °FPassing clouds.9 mph62%30.01 "HgN/A
9:30 AM50 °FPassing clouds.10 mph62%30.01 "HgN/A
9:00 AM48 °FScattered clouds.9 mph66%29.98 "HgN/A
Weather by CustomWeather, © 2016

See weather overviewHow to use our weather pages